• In Belarus
  • List of Countries
  • For 7 days
  • Water Temperature
  • Satellite Maps
  • Weather Map
  • Weather Widgets
  • user-avatar
    Login

    Hourly Weather Krasnyy Saburovec

    Today, 26 September, Wednesday

    Time Temperature Precipitation Wind Pressure Humidity
    00:00 +5°C° 0 mm 4 mps 748 mmHg 82%
    01:00 +4°C° 0 mm 4 mps 748 mmHg 85%
    02:00 +4°C° 0 mm 2 mps 749 mmHg 91%
    03:00 +4°C° 0 mm 2 mps 749 mmHg 92%
    04:00 +2°C° 0 mm 3 mps 750 mmHg 93%
    05:00 +2°C° 0 mm 3 mps 750 mmHg 94%
    06:00 +3°C° 0 mm 3 mps 751 mmHg 89%
    07:00 +4°C° 0 mm 4 mps 751 mmHg 85%
    08:00 +4°C° 0 mm 4 mps 752 mmHg 80%
    09:00 +6°C° 0 mm 4 mps 752 mmHg 73%
    10:00 +7°C° 0 mm 4 mps 752 mmHg 65%
    11:00 +8°C° 0 mm 4 mps 753 mmHg 57%
    12:00 +10°C° 0 mm 4 mps 753 mmHg 54%
    13:00 +10°C° 0 mm 4 mps 753 mmHg 52%
    14:00 +11°C° 0 mm 4 mps 753 mmHg 49%
    15:00 +10°C° 0 mm 4 mps 752 mmHg 54%
    16:00 +9°C° 0 mm 3 mps 752 mmHg 59%
    17:00 +8°C° 0 mm 3 mps 752 mmHg 64%
    18:00 +8°C° 0 mm 3 mps 752 mmHg 66%
    19:00 +6°C° 0 mm 4 mps 752 mmHg 69%
    20:00 +6°C° 0 mm 4 mps 752 mmHg 71%
    21:00 +6°C° 0 mm 5 mps 751 mmHg 69%
    22:00 +5°C° 0 mm 6 mps 751 mmHg 67%
    23:00 +5°C° 0 mm 6 mps 750 mmHg 65%

    Tomorrow, 27 September, Thursday

    Time Temperature Precipitation Wind Pressure Humidity
    00:00 +5°C° 0 mm 7 mps 749 mmHg 63%
    01:00 +5°C° 0 mm 7 mps 748 mmHg 61%
    02:00 +5°C° 0 mm 8 mps 748 mmHg 59%
    03:00 +5°C° 0.3 mm 9 mps 747 mmHg 63%
    04:00 +5°C° 0.3 mm 9 mps 745 mmHg 66%
    05:00 +5°C° 0.3 mm 10 mps 744 mmHg 70%
    06:00 +5°C° 0.3 mm 10 mps 744 mmHg 74%
    07:00 +5°C° 0.3 mm 10 mps 743 mmHg 78%
    08:00 +5°C° 0.3 mm 10 mps 743 mmHg 81%
    09:00 +5°C° 0.2 mm 10 mps 743 mmHg 83%
    10:00 +6°C° 0.2 mm 10 mps 743 mmHg 84%
    11:00 +6°C° 0.2 mm 9 mps 743 mmHg 85%
    12:00 +7°C° 0.1 mm 9 mps 743 mmHg 85%
    13:00 +7°C° 0.1 mm 8 mps 743 mmHg 85%
    14:00 +9°C° 0.1 mm 7 mps 743 mmHg 84%
    15:00 +9°C° 0.1 mm 7 mps 743 mmHg 85%
    16:00 +9°C° 0.1 mm 7 mps 743 mmHg 85%
    17:00 +9°C° 0.1 mm 6 mps 743 mmHg 85%
    18:00 +9°C° 0.1 mm 6 mps 744 mmHg 88%
    19:00 +9°C° 0.1 mm 5 mps 744 mmHg 90%
    20:00 +8°C° 0.1 mm 5 mps 744 mmHg 92%
    21:00 +8°C° 0 mm 5 mps 745 mmHg 92%
    22:00 +8°C° 0 mm 5 mps 745 mmHg 92%
    23:00 +7°C° 0 mm 4 mps 745 mmHg 92%

    Day after tomorrow, 28 September, Friday

    Time Temperature Precipitation Wind Pressure Humidity
    00:00 +7°C° 0 mm 4 mps 745 mmHg 92%
    01:00 +6°C° 0 mm 4 mps 745 mmHg 93%
    02:00 +6°C° 0 mm 4 mps 745 mmHg 93%
    03:00 +6°C° 0 mm 5 mps 744 mmHg 94%
    04:00 +6°C° 0 mm 5 mps 744 mmHg 94%
    05:00 +5°C° 0 mm 6 mps 744 mmHg 95%
    06:00 +7°C° 0 mm 6 mps 743 mmHg 91%
    07:00 +8°C° 0 mm 7 mps 743 mmHg 87%
    08:00 +10°C° 0 mm 8 mps 743 mmHg 83%
    09:00 +11°C° 0 mm 9 mps 742 mmHg 79%
    10:00 +13°C° 0 mm 9 mps 742 mmHg 75%
    11:00 +14°C° 0 mm 10 mps 741 mmHg 72%
    12:00 +16°C° 0 mm 10 mps 741 mmHg 72%
    13:00 +16°C° 0 mm 9 mps 740 mmHg 72%
    14:00 +17°C° 0 mm 9 mps 740 mmHg 72%
    15:00 +16°C° 0.1 mm 9 mps 740 mmHg 75%
    16:00 +15°C° 0.1 mm 8 mps 740 mmHg 78%
    17:00 +15°C° 0.1 mm 8 mps 740 mmHg 81%
    18:00 +14°C° 0.2 mm 7 mps 741 mmHg 81%
    19:00 +11°C° 0.2 mm 6 mps 741 mmHg 81%
    20:00 +10°C° 0.2 mm 5 mps 742 mmHg 81%
    21:00 +10°C° 0 mm 4 mps 743 mmHg 84%
    22:00 +9°C° 0 mm 3 mps 743 mmHg 86%
    23:00 +8°C° 0 mm 3 mps 744 mmHg 88%

    29 September, Saturday

    Time Temperature Precipitation Wind Pressure Humidity
    00:00 +7°C° 0 mm 3 mps 744 mmHg 89%
    01:00 +6°C° 0 mm 2 mps 745 mmHg 89%
    02:00 +5°C° 0 mm 2 mps 745 mmHg 90%
    03:00 +5°C° 0 mm 2 mps 746 mmHg 89%
    04:00 +5°C° 0 mm 2 mps 746 mmHg 88%
    05:00 +5°C° 0 mm 1 mps 746 mmHg 87%
    06:00 +6°C° 0 mm 1 mps 746 mmHg 82%
    07:00 +7°C° 0 mm 1 mps 747 mmHg 77%
    08:00 +8°C° 0 mm 1 mps 747 mmHg 72%
    09:00 +8°C° 0 mm 2 mps 747 mmHg 65%
    10:00 +9°C° 0 mm 2 mps 748 mmHg 59%
    11:00 +10°C° 0 mm 2 mps 748 mmHg 53%
    12:00 +12°C° 0 mm 2 mps 748 mmHg 51%
    13:00 +12°C° 0 mm 2 mps 748 mmHg 49%
    14:00 +12°C° 0 mm 2 mps 748 mmHg 47%
    15:00 +12°C° 0 mm 2 mps 748 mmHg 52%
    16:00 +11°C° 0 mm 1 mps 748 mmHg 56%
    17:00 +10°C° 0 mm 1 mps 748 mmHg 60%
    18:00 +10°C° 0 mm 1 mps 749 mmHg 62%
    19:00 +9°C° 0 mm 1 mps 749 mmHg 64%
    20:00 +8°C° 0 mm 1 mps 750 mmHg 66%
    21:00 +8°C° 0 mm 1 mps 750 mmHg 69%
    22:00 +6°C° 0 mm 2 mps 751 mmHg 72%
    23:00 +6°C° 0 mm 2 mps 751 mmHg 75%

    30 September, Sunday

    Time Temperature Precipitation Wind Pressure Humidity
    00:00 +5°C° 0 mm 2 mps 751 mmHg 78%
    01:00 +5°C° 0 mm 2 mps 751 mmHg 80%
    02:00 +5°C° 0 mm 2 mps 752 mmHg 83%
    03:00 +4°C° 0 mm 2 mps 752 mmHg 84%
    04:00 +4°C° 0 mm 2 mps 752 mmHg 84%
    05:00 +3°C° 0 mm 2 mps 752 mmHg 85%
    06:00 +4°C° 0 mm 2 mps 753 mmHg 79%
    07:00 +6°C° 0 mm 1 mps 753 mmHg 74%
    08:00 +8°C° 0 mm 1 mps 753 mmHg 68%
    09:00 +9°C° 0 mm 1 mps 753 mmHg 62%
    10:00 +10°C° 0 mm 1 mps 754 mmHg 56%
    11:00 +11°C° 0 mm 0 mps 754 mmHg 50%
    12:00 +12°C° 0 mm 1 mps 753 mmHg 48%
    13:00 +12°C° 0 mm 1 mps 753 mmHg 45%
    14:00 +13°C° 0 mm 2 mps 753 mmHg 42%
    15:00 +12°C° 0 mm 2 mps 753 mmHg 47%
    16:00 +11°C° 0 mm 1 mps 753 mmHg 51%
    17:00 +10°C° 0 mm 1 mps 752 mmHg 56%
    18:00 +9°C° 0 mm 1 mps 753 mmHg 58%
    19:00 +8°C° 0 mm 1 mps 753 mmHg 60%
    20:00 +8°C° 0 mm 1 mps 753 mmHg 63%
    21:00 +6°C° 0 mm 2 mps 753 mmHg 65%
    22:00 +6°C° 0 mm 2 mps 753 mmHg 68%
    23:00 +6°C° 0 mm 2 mps 753 mmHg 71%

    1 October, Monday

    Time Temperature Precipitation Wind Pressure Humidity
    00:00 +5°C° 0 mm 2 mps 753 mmHg 72%
    01:00 +5°C° 0 mm 2 mps 753 mmHg 74%
    02:00 +5°C° 0 mm 2 mps 753 mmHg 76%
    03:00 +4°C° 0 mm 2 mps 752 mmHg 77%
    04:00 +4°C° 0 mm 2 mps 752 mmHg 77%
    05:00 +4°C° 0 mm 2 mps 752 mmHg 78%
    06:00 +5°C° 0 mm 2 mps 752 mmHg 74%
    07:00 +6°C° 0 mm 2 mps 752 mmHg 71%
    08:00 +7°C° 0 mm 2 mps 752 mmHg 67%
    09:00 +9°C° 0 mm 2 mps 752 mmHg 61%
    10:00 +11°C° 0 mm 3 mps 752 mmHg 56%
    11:00 +12°C° 0 mm 3 mps 752 mmHg 50%
    12:00 +13°C° 0 mm 3 mps 752 mmHg 49%
    13:00 +13°C° 0 mm 3 mps 751 mmHg 47%
    14:00 +14°C° 0 mm 3 mps 751 mmHg 46%
    15:00 +13°C° 0 mm 2 mps 750 mmHg 51%
    16:00 +12°C° 0 mm 2 mps 750 mmHg 55%
    17:00 +11°C° 0 mm 1 mps 750 mmHg 60%
    18:00 +10°C° 0 mm 1 mps 750 mmHg 62%
    19:00 +9°C° 0 mm 2 mps 750 mmHg 63%
    20:00 +8°C° 0 mm 2 mps 750 mmHg 65%
    21:00 +7°C° 0 mm 2 mps 750 mmHg 66%
    22:00 +7°C° 0 mm 2 mps 750 mmHg 66%
    23:00 +7°C° 0 mm 2 mps 750 mmHg 67%
    Show more